Regional Weather Roundup
Issued by NWS

Home | Current Version | Previous Version | Graphics & Text | Print | Product List | Glossary On
Versions: 1 2 3 4 5 6 7 8 9 10 11 12 13 14 15 16 17 18 19 20 21 22 23 24 25 26 27 28 29 30 31 32 33 34 35 36 37 38 39 40 41 42 43 44 45 46 47 48 49 50
000
ASUS43 KLMK 312010
RWRKY
KENTUCKY REGIONAL WEATHER ROUNDUP
NATIONAL WEATHER SERVICE LOUISVILLE KY
400 PM EDT MON AUG 31 2015

NOTE "FAIR" INDICATES FEW OR NO CLOUDS BELOW 12,000 FEET
WITH NO SIGNIFICANT WEATHER AND/OR OBSTRUCTIONS TO VISIBILITY.

KYZ001>023-026-027-061>063-070>075-312100-
WESTERN AND SOUTH CENTRAL KENTUCKY

CITY           SKY/WX    TMP DP  RH WIND       PRES   REMARKS
PADUCAH        SUNNY     87  67  51 VRB6      30.07F HX  90
HENDERSON      PTSUNNY   86  66  51 S6        30.07F
OWENSBORO      MOSUNNY   88  67  49 VRB3      30.09F HX  91
HOPKINSVILLE   PTSUNNY   84  66  54 CALM      30.09F
BOWLING GREEN  SUNNY     88  63  43 E8        30.10F
GLASGOW        SUNNY     86  62  43 NW5       30.11F
$$

KYZ024-025-028>034-038-045-046-053-312100-
NORTH CENTRAL KENTUCKY

CITY           SKY/WX    TMP DP  RH WIND       PRES   REMARKS
LOUISVILLE/SDF MOSUNNY   87  62  43 S9        30.08F
LOUISVILLE/LOU PTSUNNY   86  62  44 VRB5      30.09F
FORT KNOX      MOSUNNY   86  63  46 VRB1      30.09F
$$

KYZ035>037-039>044-047>052-055>060-089>105-312100-
NORTHEAST KENTUCKY

CITY           SKY/WX    TMP DP  RH WIND       PRES   REMARKS
LEXINGTON      SUNNY     85  61  44 VRB5      30.11F
COVINGTON      MOSUNNY   85  65  51 SW6       30.09F
FRANKFORT      SUNNY     85  59  41 VRB6      30.10F
$$

KYZ054-064>069-076>088-106>120-312100-
SOUTHEAST KENTUCKY

CITY           SKY/WX    TMP DP  RH WIND       PRES   REMARKS
JACKSON        SUNNY     84  65  52 CALM      30.13F
LONDON         SUNNY     85  60  42 VRB5      30.12F
SOMERSET       CLOUDY    81  63  54 E3        30.12F
MIDDLESBORO    PTSUNNY   84  65  52 CALM      30.12F
MONTICELLO     CLEAR     86  65  49 CALM      30.13F
$$




USA.gov is the U.S. government's official web portal to all federal, state and local government web resources and services.